Wind_Speed
17 17 17 17 18 17 17 16 16 16 15 15 15 15 15 15 15 15 15 16 17 18 19 19 20 20 21 22 22 23 24 25 26 28 29 30 30 31 32 33 34 35 36
17 17 17 17 16 16 16 16 16 16 15 15 15 15 15 16 16 16 16 17 18 18 19 19 19 20 20 21 22 23 24 24 25 25 28 29 30 32 33 33 34 35 36
17 16 16 17 17 16 16 16 16 16 15 15 15 16 16 17 17 17 18 18 18 19 19 19 19 20 21 22 23 23 24 24 25 25 26 27 29 31 32 33 33 34 35
17 17 17 17 17 17 17 16 16 15 15 16 16 16 16 17 17 18 18 18 18 19 19 19 20 21 21 22 22 23 23 24 24 24 25 26 28 29 31 32 33 34 34
16 17 17 17 17 17 17 17 16 16 16 16 16 16 17 17 18 18 18 18 19 19 20 20 21 21 22 22 22 22 22 23 24 25 26 26 27 28 29 31 32 33 33
17 17 18 18 18 17 17 17 17 16 17 17 17 17 17 17 18 18 18 19 19 19 20 21 21 22 22 21 21 21 22 23 24 25 26 27 27 28 29 29 30 31 32
17 18 19 19 18 17 17 17 17 17 17 17 17 17 18 18 18 18 18 18 19 19 20 21 21 22 21 21 21 22 23 24 24 25 26 27 27 27 27 29 30 31 31
18 18 19 19 18 17 17 17 17 18 18 18 18 19 19 19 18 19 19 19 20 20 21 21 21 21 21 21 22 22 23 23 24 25 25 25 25 25 26 28 29 30 31
18 19 19 19 19 18 18 18 18 18 18 19 19 19 19 19 19 19 19 20 20 21 21 21 21 21 21 22 22 22 23 23 23 23 23 24 24 25 26 27 28 30 31
19 19 19 19 19 19 19 19 18 19 19 19 20 20 20 20 20 19 20 20 20 20 20 20 20 21 21 22 22 22 22 22 23 23 23 23 23 24 25 25 26 27 27
20 20 20 20 19 20 20 20 19 19 20 20 20 20 20 20 20 20 20 20 20 20 21 21 21 21 21 21 21 21 21 21 21 22 21 21 22 22 21 22 23 24 25
21 21 21 21 21 21 21 21 20 20 20 20 20 20 20 20 20 20 21 21 21 22 22 22 22 22 21 21 21 21 21 21 20 20 20 21 21 20 20 20 21 22 23
22 22 22 22 22 22 21 21 21 21 20 20 21 21 21 21 21 21 22 22 22 23 23 23 23 23 22 22 22 22 22 22 21 21 21 21 20 20 19 19 20 20 21
22 22 22 23 22 22 22 22 21 20 20 20 21 21 21 21 21 22 22 23 23 23 24 24 24 23 23 23 23 22 23 23 22 22 22 21 20 19 19 19 19 20 20
22 22 22 22 22 22 22 22 22 21 21 21 21 21 21 22 22 23 23 23 23 23 23 23 23 23 23 23 23 22 22 22 21 21 21 20 19 18 18 18 18 19 20
20 21 21 21 20 21 21 21 21 21 21 21 21 21 21 21 22 22 22 22 23 23 23 22 22 22 22 21 21 20 20 20 20 19 18 17 17 17 16 16 16 17 17
19 19 19 18 18 18 18 18 19 19 19 20 20 20 20 21 21 22 22 22 23 22 22 21 21 21 20 19 19 19 19 19 19 18 17 17 16 16 16 16 17 16 16
19 19 19 18 18 18 18 18 18 18 19 19 19 20 20 20 21 21 22 22 22 22 21 21 21 21 20 19 18 18 18 18 18 18 17 17 16 16 16 16 17 17 17
18 18 18 18 17 18 18 18 18 18 18 19 19 19 20 20 20 20 20 21 21 20 20 20 20 21 20 19 18 18 18 18 17 17 17 17 16 16 17 17 17 17 17
18 18 18 18 18 18 18 18 18 18 18 19 19 19 19 20 20 20 20 20 20 20 20 20 20 20 19 18 17 17 17 17 17 16 16 16 16 16 16 16 16 16 17
17 17 17 17 17 17 17 17 17 17 18 19 19 19 18 18 19 19 19 20 19 20 20 19 19 19 18 18 17 16 16 16 17 16 16 17 17 16 16 16 15 15 15
17 17 17 16 17 17 16 16 16 17 17 18 18 18 18 18 18 18 19 19 20 20 20 19 19 19 18 17 17 17 16 16 17 17 17 17 17 17 16 15 15 14 14
17 16 16 16 15 16 15 15 16 16 17 17 17 17 18 18 18 18 19 20 20 20 19 19 19 18 18 18 17 17 17 17 17 17 17 17 16 16 16 15 15 14 14
16 16 16 15 15 15 14 15 15 16 16 17 17 17 17 18 18 18 19 20 20 20 20 19 19 18 18 17 17 17 17 18 17 17 17 16 16 15 15 15 14 14 13
16 16 16 16 15 14 14 15 16 16 16 16 17 16 17 18 18 18 19 20 20 20 20 20 19 18 18 17 17 16 16 17 17 17 17 16 15 14 13 13 13 14 13
17 16 16 16 16 16 16 16 17 17 17 17 17 16 17 17 18 18 19 20 20 21 20 20 19 19 17 16 16 16 16 16 16 16 16 15 14 13 13 12 12 12 12
Wind_Direction
309 312 314 316 319 315 313 312 312 311 311 309 306 304 304 303 302 298 295 293 292 290 289 289 285 282 282 280 279 276 273 271 270 267 265 263 260 257 255 255 253 254 252
312 313 315 318 320 321 317 316 314 311 310 309 308 307 307 306 303 299 295 294 293 292 290 288 286 284 282 281 281 278 277 275 274 270 268 265 262 259 257 256 256 256 253
313 315 318 318 319 319 318 316 314 312 310 310 310 309 309 308 306 303 300 296 295 294 292 290 289 287 285 284 283 281 282 280 279 276 271 267 264 262 259 258 258 256 253
313 315 317 319 319 318 317 316 313 311 311 311 313 311 309 308 306 304 302 298 297 297 295 293 292 290 288 286 284 283 283 281 280 277 274 270 267 264 261 258 257 256 255
312 314 317 317 317 317 317 316 313 310 309 311 311 310 307 306 306 304 302 301 299 298 297 296 296 294 291 288 286 286 286 284 282 279 276 273 269 265 261 260 260 259 257
310 312 315 316 316 316 312 311 311 309 308 308 309 309 308 306 307 306 305 304 302 301 299 298 298 297 294 290 287 287 287 286 283 281 278 275 272 267 264 263 262 261 259
310 312 313 314 315 316 314 310 309 309 309 309 310 309 310 309 308 308 308 308 307 304 303 302 300 300 297 293 291 289 289 288 286 284 280 276 273 270 267 264 262 261 259
311 312 313 313 312 311 311 310 309 308 308 310 310 309 307 307 309 309 308 308 308 307 305 304 304 303 300 296 293 293 293 292 290 288 283 280 276 273 268 265 262 261 261
311 312 312 312 311 309 308 306 305 306 306 308 309 308 306 303 304 307 309 310 310 309 308 306 305 303 301 299 297 296 295 293 292 291 286 281 277 274 271 268 265 264 262
308 308 309 311 310 309 307 304 304 305 306 306 306 307 306 305 305 306 307 309 310 311 309 307 305 304 303 301 299 298 296 295 294 292 287 284 280 277 274 271 268 265 263
305 306 308 309 310 311 309 306 304 304 306 306 306 306 306 305 304 305 306 308 309 309 308 307 306 305 305 304 303 301 300 299 298 296 291 289 287 283 278 273 269 266 264
304 305 307 307 309 310 309 307 305 304 305 306 306 307 306 304 303 304 305 305 307 307 306 305 304 305 304 302 303 303 303 303 301 298 294 292 289 285 279 275 271 267 264
303 304 305 306 308 309 309 307 305 304 304 304 305 305 304 302 302 303 305 303 304 306 306 304 303 302 300 300 300 300 300 301 301 299 296 294 290 287 283 278 274 271 268
302 303 303 304 306 307 308 307 306 305 305 304 304 304 302 301 300 301 301 301 302 304 305 304 302 299 298 299 300 301 301 302 301 300 297 294 292 289 285 281 278 274 271
301 302 303 304 304 305 306 305 305 306 306 304 303 304 305 305 304 305 305 304 306 307 307 306 304 303 302 301 300 299 301 302 301 301 299 295 291 287 285 282 278 275 273
304 306 307 308 309 310 311 311 311 311 310 310 309 309 308 309 309 310 309 309 311 310 307 306 305 305 305 302 302 301 300 301 303 303 301 299 296 291 286 283 281 279 276
304 306 308 309 310 313 316 316 317 316 316 314 313 312 312 312 313 312 311 311 312 312 310 308 308 308 307 305 304 304 303 302 302 302 302 301 298 295 290 285 281 280 278
302 305 308 308 309 312 316 318 318 318 318 319 318 317 316 316 316 315 314 313 312 312 312 311 311 309 307 306 304 303 304 305 304 302 299 297 295 293 291 288 284 280 277
301 305 307 307 308 312 314 315 316 318 320 322 322 322 322 321 319 318 319 318 317 315 314 314 314 314 309 306 304 303 303 304 304 303 301 298 295 291 289 287 286 282 277
298 302 306 307 308 310 312 314 316 318 321 323 322 322 323 324 324 324 324 323 322 320 319 318 317 316 313 310 307 305 305 306 305 304 304 303 300 295 290 288 286 283 278
295 301 305 307 309 311 312 314 317 319 322 323 323 323 324 324 324 325 325 325 324 323 323 321 320 319 316 312 310 307 305 304 303 303 305 305 303 299 293 289 287 285 280
293 298 301 304 308 311 313 313 314 317 320 322 324 325 327 327 327 328 328 328 328 327 325 323 322 320 317 313 310 308 307 305 303 302 303 304 303 301 297 293 290 285 280
290 295 299 301 303 307 312 315 317 320 322 324 326 326 327 328 328 328 330 332 333 332 330 327 325 323 320 316 312 311 310 310 308 306 304 303 302 300 297 294 291 286 280
291 292 295 298 302 305 310 315 318 321 323 325 326 325 326 327 328 329 330 331 333 332 331 329 327 324 321 319 317 313 312 312 312 310 306 303 300 297 295 294 290 286 282
289 292 291 292 298 302 307 311 316 320 323 324 325 325 325 326 327 329 330 331 332 332 332 330 328 326 324 321 319 316 315 313 311 310 308 305 301 298 295 293 290 286 283
284 286 288 291 295 297 300 304 310 315 318 320 322 322 323 324 326 328 329 330 331 333 333 332 331 329 325 321 319 319 319 318 315 311 310 307 303 298 295 292 290 287 284
Height
5793 5791 5788 5785 5782 5778 5775 5773 5771 5769 5766 5764 5762 5760 5758 5756 5755 5753 5751 5749 5747 5746 5744 5743 5741 5740 5739 5738 5737 5735 5734 5734 5733 5733 5731 5731 5732 5733 5734 5736 5737 5739 5741
5790 5787 5784 5781 5778 5775 5772 5770 5767 5765 5763 5761 5759 5756 5754 5753 5751 5748 5746 5744 5742 5741 5739 5737 5736 5734 5733 5732 5730 5729 5727 5726 5725 5724 5723 5723 5723 5724 5725 5727 5728 5729 5732
5786 5783 5780 5778 5775 5772 5769 5766 5764 5762 5759 5757 5755 5753 5751 5749 5746 5744 5742 5740 5738 5736 5734 5732 5730 5728 5727 5725 5723 5722 5720 5718 5717 5716 5715 5714 5714 5715 5716 5718 5719 5720 5721
5782 5780 5777 5774 5771 5768 5765 5763 5760 5758 5756 5754 5751 5749 5747 5745 5742 5740 5737 5735 5733 5730 5728 5726 5724 5722 5721 5719 5717 5715 5713 5711 5710 5708 5707 5706 5706 5706 5707 5708 5709 5710 5711
5779 5776 5773 5771 5768 5765 5762 5759 5757 5754 5752 5750 5747 5745 5743 5740 5738 5735 5733 5730 5727 5725 5723 5721 5718 5716 5714 5712 5710 5708 5706 5704 5702 5700 5699 5698 5698 5697 5698 5698 5699 5700 5701
5775 5772 5769 5767 5764 5761 5758 5755 5753 5750 5748 5746 5743 5741 5738 5736 5734 5731 5728 5725 5722 5720 5717 5715 5712 5710 5708 5705 5703 5701 5699 5697 5695 5693 5691 5690 5689 5689 5689 5689 5689 5691 5692
5771 5768 5765 5762 5760 5757 5754 5751 5749 5746 5744 5741 5739 5737 5734 5732 5729 5726 5723 5720 5717 5715 5712 5709 5707 5704 5701 5699 5697 5695 5693 5690 5688 5685 5683 5682 5681 5680 5680 5680 5680 5681 5682
5766 5763 5761 5758 5755 5753 5750 5747 5745 5742 5740 5737 5735 5732 5729 5727 5724 5721 5718 5715 5712 5710 5707 5704 5701 5698 5695 5693 5691 5689 5686 5683 5681 5678 5676 5674 5673 5672 5672 5671 5671 5671 5672
5762 5759 5756 5753 5751 5748 5746 5743 5740 5738 5735 5732 5730 5727 5724 5722 5719 5716 5714 5711 5707 5704 5702 5699 5696 5693 5690 5687 5685 5682 5679 5677 5674 5671 5668 5667 5665 5664 5664 5663 5663 5663 5663
5758 5755 5752 5749 5746 5743 5741 5738 5735 5733 5730 5727 5724 5722 5719 5716 5714 5711 5708 5706 5703 5700 5697 5694 5691 5688 5685 5681 5679 5676 5673 5670 5667 5665 5662 5660 5658 5656 5655 5655 5654 5654 5654
5752 5750 5747 5744 5741 5738 5735 5732 5730 5727 5724 5722 5719 5716 5713 5711 5708 5706 5703 5700 5697 5694 5692 5689 5686 5682 5679 5676 5673 5670 5667 5664 5661 5658 5656 5654 5651 5650 5648 5647 5647 5646 5647
5747 5744 5741 5739 5736 5733 5730 5727 5724 5721 5719 5716 5713 5710 5708 5705 5703 5700 5698 5695 5692 5689 5686 5683 5680 5677 5673 5670 5667 5665 5662 5658 5655 5652 5650 5647 5645 5644 5642 5641 5640 5640 5640
5741 5738 5736 5733 5730 5727 5724 5721 5718 5715 5713 5710 5708 5705 5702 5699 5697 5694 5692 5689 5686 5683 5679 5676 5673 5670 5667 5665 5662 5659 5656 5652 5649 5647 5644 5642 5640 5638 5636 5635 5634 5633 5633
5735 5732 5729 5727 5724 5721 5718 5715 5712 5709 5707 5704 5701 5699 5696 5693 5691 5689 5686 5683 5679 5676 5673 5670 5667 5664 5661 5658 5655 5652 5649 5646 5643 5641 5638 5635 5633 5631 5630 5628 5627 5627 5627
5729 5726 5723 5721 5718 5715 5712 5710 5707 5704 5701 5699 5696 5693 5690 5688 5685 5682 5679 5676 5673 5669 5666 5663 5660 5657 5654 5651 5648 5646 5643 5640 5637 5634 5632 5629 5627 5625 5624 5622 5621 5621 5620
5723 5720 5718 5715 5712 5710 5707 5704 5701 5698 5696 5693 5690 5688 5685 5682 5679 5676 5673 5669 5666 5662 5660 5657 5654 5651 5648 5645 5642 5639 5637 5634 5632 5629 5626 5624 5622 5620 5618 5617 5616 5615 5614
5717 5715 5712 5710 5707 5705 5702 5699 5697 5694 5691 5688 5685 5682 5679 5676 5673 5670 5667 5664 5660 5657 5654 5651 5648 5645 5642 5639 5636 5634 5631 5629 5626 5624 5621 5619 5617 5615 5613 5612 5611 5610 5609
5712 5710 5707 5705 5703 5700 5698 5695 5692 5689 5687 5683 5680 5677 5674 5671 5668 5664 5661 5658 5654 5651 5648 5645 5642 5639 5636 5633 5631 5628 5626 5624 5621 5618 5616 5614 5612 5610 5609 5607 5606 5604 5604
5707 5705 5703 5700 5698 5695 5693 5690 5688 5685 5682 5679 5676 5673 5669 5666 5662 5659 5655 5652 5649 5646 5643 5640 5637 5634 5631 5628 5625 5623 5621 5618 5616 5613 5611 5609 5607 5605 5603 5602 5600 5599 5598
5702 5700 5698 5696 5693 5691 5688 5686 5683 5680 5677 5674 5672 5668 5665 5662 5658 5655 5651 5648 5644 5641 5638 5635 5632 5628 5625 5622 5620 5618 5616 5613 5611 5608 5606 5603 5601 5599 5598 5596 5595 5593 5592
5697 5695 5693 5691 5689 5686 5684 5681 5679 5676 5673 5670 5667 5664 5661 5658 5654 5651 5647 5644 5640 5637 5633 5630 5626 5623 5620 5617 5615 5612 5610 5608 5606 5603 5601 5598 5596 5594 5592 5590 5589 5587 5586
5692 5690 5688 5686 5684 5682 5680 5677 5675 5672 5669 5666 5663 5660 5657 5654 5651 5647 5644 5640 5636 5632 5629 5625 5622 5619 5615 5612 5610 5607 5605 5603 5600 5598 5596 5593 5591 5588 5586 5585 5583 5582 5581
5686 5685 5683 5681 5680 5678 5676 5673 5671 5668 5666 5663 5660 5657 5654 5651 5648 5644 5641 5637 5633 5629 5625 5621 5617 5614 5611 5608 5605 5602 5600 5597 5595 5592 5590 5588 5585 5583 5581 5579 5578 5577 5576
5681 5680 5678 5677 5675 5673 5671 5669 5667 5665 5662 5659 5656 5653 5650 5647 5644 5641 5637 5633 5629 5625 5621 5617 5613 5609 5606 5603 5600 5597 5595 5592 5589 5587 5584 5582 5580 5578 5576 5574 5573 5572 5571
5675 5674 5673 5672 5670 5669 5667 5665 5663 5661 5658 5655 5653 5650 5647 5644 5640 5637 5633 5629 5625 5621 5617 5613 5609 5605 5602 5598 5595 5592 5590 5587 5584 5581 5579 5577 5575 5573 5571 5570 5568 5567 5566
5669 5668 5668 5666 5665 5664 5662 5661 5659 5656 5654 5651 5649 5646 5643 5640 5636 5633 5629 5625 5621 5617 5613 5609 5605 5601 5597 5594 5590 5588 5585 5582 5579 5576 5574 5572 5570 5568 5567 5566 5564 5563 5562